Date,TemperatureHighF,TemperatureAvgF,TemperatureLowF,DewpointHighF,DewpointAvgF,DewpointLowF,HumidityHigh,HumidityAvg,HumidityLow,PressureMaxIn,PressureMinIn,WindSpeedMaxMPH,WindSpeedAvgMPH,GustSpeedMaxMPH,PrecipitationSumIn
2013-1-1,39.4,31.8,26.1,31.8,28.0,24.3,95,86,72,30.39,30.26,7,0,7,0.00
2013-1-2,41.4,31.3,23.0,33.9,25.9,20.8,92,81,64,30.27,30.12,7,0,7,0.00
2013-1-3,40.1,31.7,22.7,31.7,26.6,19.8,91,82,67,30.20,30.07,3,0,3,0.00
2013-1-4,54.7,43.4,36.0,48.3,40.5,31.4,96,90,76,30.26,30.12,7,1,7,0.00
2013-1-5,40.9,38.5,36.5,39.0,34.9,32.7,93,87,80,30.16,30.10,5,0,5,0.00
2013-1-6,48.6,42.8,38.0,44.7,40.2,35.9,95,91,86,30.18,30.05,6,1,6,0.00
2013-1-7,54.4,48.1,44.3,52.0,45.8,41.6,96,92,88,30.19,29.98,10,3,10,0.00
2013-1-8,54.7,50.3,47.3,50.9,47.7,45.5,95,91,86,30.18,29.86,12,3,12,0.00
2013-1-9,49.3,43.0,35.1,45.7,39.7,32.9,93,88,82,29.94,29.68,13,2,13,0.00
2013-1-10,45.2,37.3,32.8,41.6,35.0,31.0,95,91,82,30.07,29.94,4,1,4,0.00
2013-1-11,39.1,33.0,25.6,34.3,29.6,23.0,97,88,63,30.25,30.05,5,0,5,0.00
2013-1-12,35.6,27.9,22.1,32.7,26.0,20.2,95,93,85,30.32,30.18,5,0,5,0.00
2013-1-13,29.9,28.8,27.5,27.2,26.3,25.3,93,90,89,30.42,28.99,5,0,5,0.00
2013-1-14,37.8,31.5,27.2,33.0,28.5,24.9,93,89,82,30.48,30.40,4,0,4,0.00
2013-1-15,38.2,34.7,31.5,35.7,32.3,28.7,93,91,89,30.57,30.03,7,1,7,0.00
2013-1-17,36.9,34.5,33.1,35.3,32.7,31.3,94,93,92,30.28,30.26,1,0,1,0.00
2013-1-18,36.4,32.7,30.6,33.9,31.3,29.3,96,95,89,30.27,30.21,3,0,3,0.00
2013-1-19,34.9,31.2,28.8,33.2,29.8,27.8,97,95,90,30.29,30.22,2,0,2,0.00
2013-1-20,33.3,29.8,27.9,31.3,28.5,26.6,96,95,92,30.30,30.19,3,0,3,0.00
2013-1-21,32.2,28.8,26.3,30.5,27.5,25.0,97,95,91,30.22,30.10,2,0,2,0.00
2013-1-22,33.1,29.2,25.9,31.4,27.8,24.8,97,94,92,30.11,29.90,3,0,3,0.00
2013-1-23,37.8,34.1,31.3,35.9,32.6,30.1,96,94,89,30.15,29.83,4,0,4,0.00
2013-1-24,33.5,32.9,32.4,32.7,31.8,31.2,97,95,95,30.16,30.14,1,0,1,0.00
2013-1-26,49.3,42.4,37.4,44.0,39.5,35.7,94,90,80,30.06,29.94,8,1,8,0.00
2013-1-27,43.6,40.0,36.7,41.7,38.3,35.1,96,94,91,30.12,30.03,7,2,7,0.00
2013-1-28,44.3,41.8,38.0,42.7,40.1,36.4,95,94,92,30.20,30.05,7,2,7,0.00
2013-1-29,48.2,44.9,41.8,46.3,43.0,39.9,95,93,90,30.46,30.20,7,2,7,0.00
2013-1-30,52.6,46.1,41.8,49.4,43.9,40.1,94,92,86,30.45,30.39,8,2,8,0.00
2013-1-31,56.5,48.4,42.7,50.2,45.0,41.3,96,88,75,30.40,30.29,4,0,4,0.00
2013-2-1,52.9,43.1,35.6,46.9,40.2,33.5,96,90,77,30.30,30.19,8,1,8,0.00
2013-2-2,44.3,39.0,34.0,41.9,37.2,32.0,96,93,90,30.27,30.20,4,0,4,0.00
2013-2-3,49.9,44.2,36.9,46.3,42.1,35.8,97,92,86,30.28,30.18,5,0,5,0.00
2013-2-4,53.5,45.3,38.7,47.0,42.1,36.9,95,89,76,30.18,29.90,5,0,5,0.00
2013-2-5,53.3,46.9,42.8,47.3,42.7,40.1,91,85,76,30.03,29.90,10,3,10,0.00
2013-2-6,52.4,46.5,42.1,45.2,42.0,38.2,92,85,70,30.06,29.81,12,3,12,0.00
2013-2-7,49.7,41.3,35.3,42.7,37.5,32.8,93,87,71,30.07,29.90,8,1,8,0.00
2013-2-8,46.1,39.1,33.3,38.6,35.7,31.4,97,88,74,30.23,30.07,6,0,6,0.00
2013-2-9,47.0,42.1,37.8,41.5,38.9,35.1,95,88,81,30.25,30.20,3,0,3,0.00
2013-2-10,46.3,43.2,41.9,41.8,40.5,38.6,97,90,79,30.28,30.23,5,0,5,0.00
2013-2-11,49.7,45.2,41.0,42.8,40.3,37.7,90,83,74,30.35,30.25,5,0,5,0.00
2013-2-12,56.5,49.3,44.6,50.2,45.1,41.9,92,86,75,30.43,30.34,7,2,7,0.00
2013-2-13,50.8,48.6,46.6,45.5,43.6,42.0,87,83,81,30.45,30.40,4,0,4,0.00
2013-2-14,57.4,48.2,36.2,47.0,41.9,33.7,92,79,61,30.49,30.40,8,1,8,0.00
2013-2-15,54.4,45.3,41.2,47.3,42.0,38.7,95,88,76,30.41,30.17,9,2,9,0.00
2013-2-16,54.7,44.5,36.5,47.9,40.5,32.9,95,86,66,30.25,30.16,9,1,9,0.00
2013-2-17,49.3,41.5,35.5,41.8,35.7,32.7,93,81,56,30.24,30.03,4,0,4,0.00
2013-2-18,49.5,40.9,33.8,40.6,36.0,30.7,92,83,68,30.03,29.68,7,1,7,0.00
2013-2-19,53.3,42.5,36.7,44.1,38.4,34.4,95,86,64,29.95,29.60,8,1,8,0.00
2013-2-20,50.6,42.1,36.5,43.5,38.2,34.3,94,86,72,30.07,29.94,8,1,8,0.00
2013-2-21,46.6,41.7,36.7,42.1,38.8,34.7,94,90,82,30.17,30.06,9,2,9,0.00
2013-2-22,44.3,42.7,41.6,40.6,39.9,39.1,92,90,86,30.15,30.02,13,5,13,0.00
2013-2-23,52.0,43.8,34.9,42.6,37.1,31.4,89,78,60,30.40,30.28,8,1,8,0.00
2013-2-24,53.5,42.7,33.8,41.6,35.8,31.6,93,78,55,30.39,30.04,9,2,9,0.00
2013-2-25,52.2,43.6,37.8,42.8,38.4,33.8,89,82,57,30.34,30.01,13,2,13,0.00
2013-2-26,52.0,42.0,29.9,41.5,35.9,27.9,93,80,57,30.34,30.19,5,0,5,0.00
2013-2-27,51.8,45.8,37.3,45.6,41.7,33.7,91,86,77,30.25,30.17,5,1,5,0.00
2013-2-28,57.2,52.3,46.8,53.0,49.4,44.4,93,90,85,30.40,30.16,10,3,10,0.00
2013-3-1,65.9,55.5,49.7,55.4,50.5,45.6,92,84,68,30.40,30.26,7,1,7,0.00
2013-3-2,56.2,51.8,43.6,51.0,48.0,38.1,92,87,80,30.27,30.13,5,1,5,0.00
2013-3-3,50.4,42.7,33.1,41.7,34.1,29.9,93,73,48,30.26,30.15,12,2,12,0.00
2013-3-4,55.4,42.7,32.4,41.9,35.6,29.9,93,77,55,30.15,29.84,5,1,5,0.00
2013-3-5,49.3,43.0,35.6,44.5,40.2,32.6,95,90,81,29.85,29.56,8,1,8,0.00
2013-3-6,48.8,43.4,40.0,45.2,40.9,36.6,96,91,82,29.92,29.50,10,2,10,0.00
2013-3-7,59.0,44.7,30.6,45.6,36.8,28.8,95,76,43,29.99,29.92,7,1,7,0.00
2013-3-8,56.9,44.2,32.8,44.7,36.6,29.9,91,76,50,30.15,29.95,7,0,7,0.00
2013-3-9,60.5,45.4,29.9,46.7,36.3,26.8,90,72,45,30.44,30.15,6,1,6,0.00
2013-3-10,55.8,45.7,33.5,47.1,39.6,29.5,89,79,69,30.43,30.34,5,1,5,0.00
2013-3-11,61.6,53.2,47.7,52.5,47.8,43.9,91,82,70,30.36,30.19,4,0,4,0.00
2013-3-12,62.5,51.8,43.4,53.7,47.1,40.6,94,85,69,30.20,30.10,5,1,5,0.00
2013-3-14,59.2,53.8,46.4,49.3,46.8,43.1,88,78,61,30.17,30.00,8,2,8,0.00
2013-3-15,68.2,57.2,50.0,54.9,49.4,44.6,88,76,54,30.17,30.11,6,1,6,0.00
2013-3-16,51.5,48.0,39.2,47.2,43.6,35.6,91,85,80,30.15,29.99,10,2,10,0.00
2013-3-17,53.1,43.4,35.6,42.8,36.5,32.6,90,77,59,30.27,30.14,9,1,9,0.00
2013-3-18,56.2,44.5,30.6,43.7,34.3,27.8,91,69,46,30.23,30.06,7,1,7,0.00
2013-3-19,50.4,44.2,38.5,45.0,39.6,31.6,92,84,71,30.06,29.63,3,0,3,0.00
2013-3-20,54.4,48.6,37.6,50.0,44.1,33.2,95,85,68,30.15,29.53,14,4,14,0.00
2013-3-21,52.2,42.8,36.0,44.0,36.9,33.3,92,80,63,30.28,30.15,11,2,11,0.00
2013-3-22,51.5,41.4,32.8,41.7,35.2,29.9,91,79,61,30.34,30.25,7,1,8,0.00
2013-3-23,51.5,40.9,31.7,38.8,32.4,28.8,92,73,49,30.33,30.20,7,0,7,0.00
2013-3-24,55.6,45.4,37.1,41.6,35.8,28.9,86,70,51,30.20,30.01,6,1,6,0.00
2013-3-25,59.9,49.3,40.1,43.6,38.4,34.4,82,67,51,30.02,29.86,7,1,7,0.00
2013-3-26,57.1,50.3,45.0,48.5,44.3,39.3,90,80,68,29.96,29.90,4,1,4,0.00
2013-3-27,65.5,51.8,41.4,52.6,46.2,38.4,95,82,62,29.95,29.85,8,1,8,0.00
2013-3-28,69.5,55.0,47.0,56.0,48.9,44.5,96,81,50,30.09,29.94,7,1,7,0.00
2013-3-29,70.6,57.1,48.4,56.1,49.8,46.1,94,78,56,30.15,30.06,7,1,7,0.00
2013-3-30,73.6,59.3,43.4,54.5,48.7,40.2,91,70,48,30.11,29.89,10,2,10,0.00
2013-3-31,76.9,61.5,48.2,58.2,51.0,43.7,87,70,51,29.98,29.88,10,2,10,0.00
2013-4-1,65.2,57.1,50.4,55.0,50.7,45.9,86,79,69,30.14,29.97,5,1,5,0.00
2013-4-2,71.1,57.4,48.6,55.5,49.3,44.5,89,76,54,30.16,30.06,6,1,6,0.00
2013-4-3,65.7,54.7,42.1,55.4,48.2,38.5,91,79,67,30.11,29.86,6,0,6,0.00
2013-4-4,63.2,56.8,52.0,57.6,52.2,47.8,93,85,72,29.86,29.65,13,2,13,0.00
2013-4-5,60.7,54.3,51.3,53.8,49.9,47.9,92,85,74,29.92,29.80,12,3,12,0.00
2013-4-6,56.5,51.4,47.9,50.9,47.7,45.5,92,87,72,29.98,29.66,10,2,10,0.00
2013-4-7,60.3,49.6,46.8,55.3,45.4,42.7,91,85,77,29.84,29.58,0,0,0,0.00
2013-4-8,58.0,52.0,44.1,50.2,44.9,39.7,85,77,69,30.24,30.15,4,1,4,0.00
2013-4-9,61.7,49.9,39.4,49.5,43.6,36.9,93,80,62,30.30,30.19,4,0,4,0.00
2013-4-10,65.7,51.3,43.7,55.6,45.7,38.3,91,82,63,30.29,30.13,8,2,8,0.00
2013-4-11,59.9,51.1,38.9,46.8,41.0,35.3,90,70,51,30.30,30.10,8,1,8,0.00
2013-4-12,60.1,49.4,36.9,48.9,42.2,33.1,91,77,58,30.10,29.83,11,2,11,0.00
2013-4-13,58.7,48.0,40.3,43.8,39.1,34.1,88,72,49,30.08,29.91,11,2,11,0.00
2013-4-14,54.2,44.9,40.0,45.2,40.1,33.9,90,84,69,30.07,29.89,6,1,6,0.00
2013-4-15,58.1,47.6,40.7,46.1,40.8,37.5,95,78,54,30.12,29.90,7,1,7,0.00
2013-4-16,61.6,49.6,38.0,47.3,40.2,35.0,91,72,45,30.33,30.12,9,1,9,0.00
2013-4-17,62.8,49.7,35.8,48.3,41.3,32.6,90,74,54,30.43,30.33,7,1,7,0.00
2013-4-18,66.2,55.4,42.5,50.6,45.5,38.6,89,71,54,30.42,30.28,6,1,6,0.00
2013-4-19,64.3,53.7,49.3,55.1,48.8,45.2,92,84,69,30.29,30.15,11,3,11,0.00
2013-4-20,65.5,54.5,46.4,50.7,46.2,41.0,90,75,55,30.29,30.20,5,1,5,0.00
2013-4-21,61.9,52.7,45.2,51.5,45.8,40.5,88,78,65,30.26,30.18,10,1,10,0.00
2013-4-22,67.0,54.4,42.8,45.2,39.5,32.2,88,61,32,30.33,30.24,14,3,14,0.00
2013-4-23,70.2,56.5,41.0,42.5,36.0,30.2,74,49,25,30.29,30.07,10,2,10,0.00
2013-4-24,75.6,59.6,41.8,42.7,37.3,33.3,78,47,24,30.15,29.94,13,2,13,0.00
2013-4-25,76.3,61.7,43.6,51.8,44.4,34.8,79,55,37,30.09,29.95,5,1,5,0.00
2013-4-26,80.8,63.4,45.2,57.2,46.1,36.1,82,57,22,30.19,30.08,7,0,7,0.00
2013-4-27,78.5,60.8,45.2,51.5,42.9,34.0,81,55,24,30.22,30.15,7,1,7,0.00
2013-4-28,70.4,59.5,51.3,52.5,47.3,42.6,82,65,45,30.24,30.08,7,1,7,0.00
2013-4-29,64.3,54.9,42.8,50.2,41.6,32.9,87,63,40,30.19,30.06,12,2,12,0.00
2013-4-30,63.9,48.7,35.5,40.5,35.1,29.8,83,61,37,30.37,30.19,8,1,8,0.00
2013-5-1,69.1,53.7,37.8,43.5,37.8,32.4,84,58,34,30.44,30.34,11,2,11,0.00
2013-5-2,79.2,63.0,44.1,47.9,40.6,33.8,74,46,26,30.36,30.17,11,1,11,0.00
2013-5-3,79.2,64.8,47.9,50.1,43.5,37.5,71,48,30,30.23,30.05,10,2,10,0.00
2013-5-4,83.9,69.2,54.9,49.9,41.3,33.0,64,39,18,30.06,29.81,13,3,13,0.00
2013-5-5,86.6,72.7,56.5,47.2,42.1,36.3,66,35,22,29.81,29.61,12,3,12,0.00
2013-5-6,81.7,64.2,50.8,58.5,50.0,42.8,77,61,43,29.89,29.73,7,2,7,0.00
2013-5-7,79.0,60.9,48.8,57.6,49.5,43.3,84,68,44,30.00,29.88,6,1,6,0.00
2013-5-8,70.7,58.0,46.4,55.6,49.4,41.6,89,74,56,30.09,30.00,6,1,6,0.00
2013-5-9,80.6,63.9,47.5,60.7,52.0,43.2,87,68,39,30.13,30.02,7,1,7,0.00
2013-5-10,85.0,66.8,51.8,62.7,54.0,47.1,87,66,39,30.15,30.05,6,1,6,0.00
2013-5-11,86.0,67.9,54.0,64.5,55.8,47.8,82,67,44,30.15,29.96,5,1,5,0.00
2013-5-12,77.6,65.9,59.4,63.2,56.5,52.8,84,72,49,30.09,30.02,8,1,8,0.00
2013-5-13,70.2,60.5,50.4,57.1,52.0,44.1,90,75,54,30.17,30.01,15,2,15,0.00
2013-5-14,70.9,58.1,48.4,47.7,43.7,36.1,87,62,29,30.18,30.04,8,1,8,0.00
2013-5-15,65.2,55.7,48.1,52.6,46.9,38.4,83,73,61,30.07,29.97,6,1,6,0.00
2013-5-16,63.4,57.2,53.3,55.5,51.6,46.6,90,82,69,29.97,29.91,2,0,2,0.00
2013-5-17,67.0,56.9,50.0,52.7,48.4,44.7,88,74,56,30.06,29.95,3,1,3,0.00
2013-5-18,63.0,58.0,52.0,53.3,50.6,46.3,86,76,70,30.24,30.06,7,1,7,0.00
2013-5-19,68.4,58.8,52.4,51.8,49.7,46.9,90,73,50,30.35,30.23,8,1,8,0.00
2013-5-20,75.2,58.5,46.1,52.7,46.8,40.1,91,68,38,30.28,29.88,8,1,8,0.00
2013-5-21,54.7,49.6,42.5,49.2,44.2,37.9,89,82,65,29.98,29.81,7,1,7,0.00
2013-5-22,54.0,47.2,41.9,47.9,43.2,38.3,90,86,78,29.97,29.90,11,3,11,0.00
2013-5-23,59.0,50.6,45.9,50.4,46.1,42.6,91,85,68,29.98,29.94,9,2,9,0.00
2013-5-24,60.8,53.2,47.2,50.7,47.3,43.7,92,81,65,30.04,29.94,11,2,11,0.00
2013-5-25,71.3,57.6,45.4,53.7,48.6,41.6,90,74,50,30.04,29.89,7,1,7,0.00
2013-5-26,66.2,58.0,52.4,54.5,50.8,46.1,92,78,60,30.01,29.91,13,2,13,0.00
2013-5-27,66.4,57.3,51.3,60.8,52.2,46.3,92,83,70,29.95,29.71,14,2,14,0.00
2013-5-28,67.9,58.3,52.2,54.7,50.4,47.8,91,76,54,29.90,29.71,12,2,12,0.00
2013-5-29,65.9,56.9,51.8,56.0,51.0,45.4,93,81,63,30.04,29.60,13,3,13,0.00
2013-5-30,67.9,56.9,48.8,52.7,48.1,44.8,89,73,54,30.21,30.03,7,1,7,0.00
2013-5-31,70.6,59.5,46.8,52.1,48.2,42.2,87,68,49,30.26,30.17,10,1,10,0.00
2013-6-1,78.7,62.5,46.8,58.3,51.1,42.3,88,68,45,30.19,29.97,7,1,7,0.00
2013-6-2,74.9,62.8,54.7,55.8,52.3,49.0,86,70,49,30.04,29.97,9,1,9,0.00
2013-6-3,76.7,63.1,50.0,56.6,51.8,46.7,90,69,38,30.05,29.96,8,1,8,0.00
2013-6-4,81.7,67.2,52.4,58.5,52.6,45.5,79,61,34,30.02,29.91,9,1,9,0.00
2013-6-5,85.1,71.1,55.1,61.8,55.7,49.3,84,61,34,30.03,29.91,9,1,9,0.00
2013-6-6,85.0,71.2,58.3,61.7,57.4,52.6,83,64,39,29.99,29.92,10,1,10,0.00
2013-6-8,80.8,74.3,64.3,54.6,50.8,44.4,63,45,29,30.08,29.98,8,2,8,0.00
2013-6-9,75.8,64.3,54.0,54.2,50.1,46.8,79,61,39,30.04,29.91,12,2,12,0.00
2013-6-10,73.8,60.4,48.6,52.0,46.8,42.8,83,63,45,29.96,29.84,9,2,9,0.00
2013-6-11,69.1,60.4,54.0,50.3,47.0,45.1,76,62,47,30.11,29.95,8,1,8,0.00
2013-6-12,69.1,59.3,49.0,50.8,47.6,42.8,83,66,50,30.15,30.09,9,1,9,0.00
2013-6-13,67.0,56.6,50.0,57.4,50.2,44.6,89,79,66,30.25,30.14,8,1,8,0.00
2013-6-14,71.3,59.3,45.5,54.1,49.5,42.1,91,71,51,30.25,29.93,11,1,11,0.00
2013-6-15,82.1,65.0,50.4,61.0,52.9,45.7,85,67,42,29.99,29.87,7,1,7,0.00
2013-6-16,77.8,63.4,52.6,59.2,52.9,47.4,84,70,51,30.09,29.99,5,1,5,0.00
2013-6-17,81.2,63.5,50.2,56.6,51.5,45.1,89,67,41,30.09,29.92,9,1,9,0.00
2013-6-18,70.9,61.5,52.4,56.4,50.4,45.9,82,68,51,29.99,29.90,11,2,11,0.00
2013-6-19,67.9,58.5,51.5,56.0,50.3,45.4,88,75,59,30.07,29.92,8,1,8,0.00
2013-6-20,68.6,59.0,50.0,58.2,51.7,45.9,89,77,59,30.09,30.02,7,1,7,0.00
2013-6-21,75.1,62.5,52.9,54.6,51.6,48.3,89,69,44,30.12,30.06,9,1,9,0.00
2013-6-22,83.9,68.0,51.8,57.6,53.0,46.7,84,62,32,30.06,29.82,5,1,5,0.00
2013-6-23,75.1,65.9,59.8,63.7,58.6,51.8,89,77,62,29.83,29.61,8,1,8,0.00
2013-6-24,68.2,62.0,56.3,58.2,55.1,52.0,88,79,64,29.68,29.64,8,1,8,0.00
2013-6-25,70.0,62.6,57.2,62.8,57.3,54.3,93,83,68,29.82,29.63,8,1,8,0.00
2013-6-26,74.2,66.2,59.0,62.0,59.0,56.3,93,78,61,29.99,29.81,6,1,6,0.00
2013-6-27,85.7,72.3,59.9,66.2,61.7,56.3,90,71,50,30.10,29.96,9,1,9,0.00
2013-6-28,93.4,75.9,60.3,69.8,62.3,55.6,87,65,40,30.09,29.98,5,1,6,0.00
2013-6-29,88.9,75.6,61.2,65.1,59.9,54.3,81,60,40,30.07,29.91,7,1,7,0.00
2013-6-30,94.9,77.9,62.1,69.6,62.9,55.8,83,62,39,29.92,29.79,8,1,8,0.00
2013-7-1,93.1,77.1,63.2,71.5,64.0,56.9,84,66,48,29.95,29.86,7,1,7,0.00
2013-7-2,92.7,77.4,63.9,70.1,62.9,54.7,84,63,37,30.02,29.94,8,1,8,0.00
2013-7-3,86.6,73.2,62.1,59.9,53.7,42.3,77,54,23,30.08,29.96,9,2,9,0.00
2013-7-4,78.8,66.3,54.9,57.2,52.7,48.7,82,63,42,30.09,29.96,10,2,10,0.00
2013-7-5,77.4,65.3,53.6,57.1,52.1,47.0,82,64,42,30.02,29.88,10,1,10,0.00
2013-7-6,78.5,65.9,52.6,60.7,54.4,46.9,84,68,50,29.92,29.80,9,1,10,0.00
2013-7-7,82.4,68.2,54.2,60.5,55.4,48.8,84,66,39,29.93,29.81,7,1,9,0.00
2013-7-8,82.3,68.1,54.7,60.5,54.9,48.7,87,65,40,30.02,29.93,13,1,13,0.00
2013-7-9,90.0,75.0,58.3,63.1,58.7,52.0,81,60,34,30.02,29.91,6,1,8,0.00
2013-7-10,85.0,72.5,57.8,59.9,55.7,51.0,81,57,38,30.01,29.86,10,2,10,0.00
2013-7-11,77.0,64.9,53.5,53.4,49.5,44.6,79,60,32,30.02,29.89,8,2,12,0.00
2013-7-12,79.2,64.8,52.7,53.3,49.5,45.9,81,59,37,30.04,29.94,8,1,8,0.00
2013-7-13,81.2,66.4,52.6,52.4,47.3,40.3,76,54,25,30.09,29.95,14,3,14,0.00
2013-7-14,88.2,80.8,68.0,56.0,52.3,46.4,52,38,25,30.01,29.89,8,2,8,0.00
2013-7-15,87.1,72.5,57.1,56.6,50.5,43.1,66,47,32,29.95,29.73,11,2,11,0.00
2013-7-16,85.9,71.2,61.6,62.3,54.8,49.1,75,57,40,29.98,29.71,8,1,8,0.00
2013-7-17,80.8,68.3,60.3,58.6,54.6,52.4,76,63,42,30.12,29.98,8,1,8,0.00
2013-7-18,85.0,69.1,53.1,61.7,54.6,47.7,83,63,34,30.14,30.00,11,1,11,0.00
2013-7-19,85.7,69.8,54.2,62.6,56.6,47.8,86,65,44,30.08,29.94,11,1,11,0.00
2013-7-20,82.6,68.1,54.0,62.5,56.6,48.2,88,68,48,30.02,29.87,9,1,13,0.00
2013-7-21,85.9,70.4,55.1,61.8,56.7,50.0,85,64,39,29.93,29.81,9,2,9,0.00
2013-7-22,86.0,68.3,57.6,59.6,56.2,52.2,88,68,32,29.98,29.86,7,1,7,0.00
2013-7-23,92.3,75.8,59.4,63.8,58.0,49.7,81,57,25,29.98,29.86,9,1,9,0.00
2013-7-24,92.7,77.0,60.5,61.1,55.6,41.8,82,52,18,29.98,29.89,9,1,9,0.00
2013-7-25,91.6,77.4,62.8,56.9,53.8,44.8,75,47,21,30.02,29.92,9,2,9,0.00
2013-7-26,91.1,75.0,58.9,57.8,51.9,45.6,69,46,28,30.09,29.97,13,2,13,0.00
2013-7-27,83.9,68.7,55.4,54.1,48.6,41.6,75,51,25,30.12,29.95,8,1,8,0.00
2013-7-28,78.8,64.7,50.4,56.2,50.7,43.1,82,62,42,30.01,29.89,8,1,8,0.00
2013-7-29,80.3,65.7,54.0,58.3,52.9,48.3,84,65,42,29.99,29.89,8,1,10,0.00
2013-7-30,82.3,66.3,50.8,60.4,53.6,45.5,84,66,41,30.08,29.99,7,1,7,0.00
2013-7-31,80.1,65.0,55.4,62.4,55.8,50.0,88,73,53,30.07,29.98,8,1,8,0.00
2013-8-1,68.0,63.3,59.2,57.3,54.9,52.9,81,74,68,30.09,30.02,6,1,6,0.00
2013-8-2,75.2,65.4,57.6,57.3,54.8,52.2,84,70,50,30.10,30.02,10,1,10,0.00
2013-8-3,82.6,68.6,55.3,61.0,56.7,50.6,90,68,42,30.05,29.91,10,1,10,0.00
2013-8-4,89.8,73.8,59.8,63.5,59.1,54.6,85,63,35,29.96,29.83,11,1,11,0.00
2013-8-5,90.9,74.2,58.0,64.7,57.9,51.8,81,60,32,29.96,29.83,5,1,9,0.00
2013-8-6,92.5,73.5,57.6,57.8,52.7,45.3,81,53,21,29.94,29.83,7,1,7,0.00
2013-8-7,77.2,65.4,57.6,58.8,52.9,48.3,76,64,52,30.00,29.88,8,1,8,0.00
2013-8-8,84.1,67.9,54.2,62.5,56.1,49.4,85,68,44,30.01,29.83,10,1,10,0.00
2013-8-9,85.3,72.5,63.7,62.2,59.6,57.1,87,66,40,29.89,29.76,9,1,9,0.00
2013-8-10,80.3,67.2,58.7,62.3,57.5,53.4,84,72,53,30.01,29.86,8,1,8,0.00
2013-8-11,78.8,65.9,58.3,61.5,56.7,52.7,84,73,54,30.03,29.93,5,1,7,0.00
2013-8-12,76.7,65.6,57.2,61.8,56.2,51.1,84,72,53,30.03,29.96,5,0,5,0.00
2013-8-13,85.3,67.6,50.9,60.7,52.9,46.3,86,63,32,30.05,29.87,7,1,7,0.00
2013-8-14,89.3,71.9,58.5,59.8,55.6,50.8,77,59,30,29.92,29.87,6,1,6,0.00
2013-8-15,80.5,72.1,64.1,68.0,62.6,57.2,82,72,61,29.92,29.88,6,0,6,0.00
2013-8-16,87.5,73.1,63.0,68.9,62.8,51.8,88,72,50,30.00,29.91,8,1,8,0.00
2013-8-17,87.8,69.2,55.1,65.9,56.3,49.7,85,66,39,30.04,29.96,8,1,8,0.00
2013-8-18,85.0,70.7,57.2,63.8,58.0,51.8,88,67,41,30.08,29.96,8,1,8,0.00
2013-8-19,86.8,72.5,60.8,61.2,58.0,54.5,84,63,38,30.07,29.96,10,2,10,0.00
2013-8-20,83.3,69.9,56.0,56.0,51.8,46.3,79,56,28,30.07,29.90,13,2,13,0.00
2013-8-21,86.6,72.4,59.6,60.3,55.1,49.9,73,56,36,29.94,29.79,9,1,9,0.00
2013-8-22,85.9,71.1,61.6,62.6,58.0,53.0,83,64,43,29.87,29.80,6,1,6,0.00
2013-8-23,77.8,65.9,56.7,61.7,56.8,52.6,87,74,53,29.91,29.83,7,1,7,0.00
2013-8-24,77.6,67.2,58.7,61.5,56.2,52.9,86,69,52,29.87,29.79,5,0,5,0.00
2013-8-25,71.5,62.9,55.1,61.7,56.1,49.8,87,78,70,29.89,29.84,6,0,6,0.00
2013-8-26,82.4,67.0,55.8,60.3,55.1,52.1,90,68,39,29.92,29.85,9,2,10,0.00
2013-8-27,86.9,70.8,61.2,63.5,57.8,53.7,80,65,40,29.91,29.74,7,1,7,0.00
2013-8-28,84.1,71.6,61.2,64.9,61.0,57.2,90,71,49,29.86,29.78,8,1,8,0.00
2013-8-29,79.4,69.5,63.9,69.3,62.9,60.0,89,80,62,30.03,29.80,11,1,11,0.00
2013-8-30,83.3,72.0,63.4,66.3,60.8,56.3,91,70,43,30.09,29.97,5,1,7,0.00
2013-8-31,90.7,72.0,57.8,63.9,57.8,52.2,83,63,36,29.97,29.76,6,1,7,0.00
2013-9-1,87.3,70.3,56.7,60.3,55.2,51.2,85,61,37,29.86,29.74,7,1,7,0.00
2013-9-2,82.1,71.3,63.7,61.5,56.9,53.5,78,62,45,29.89,29.82,8,1,8,0.00
2013-9-3,84.8,71.4,62.6,58.4,55.7,53.5,74,59,39,29.96,29.88,7,1,7,0.00
2013-9-4,77.9,67.3,60.5,60.4,56.7,52.9,81,69,51,30.00,29.95,6,1,6,0.00
2013-9-5,71.1,63.1,59.4,62.2,58.4,56.3,93,85,72,30.03,29.94,8,1,8,0.00
2013-9-6,74.3,64.7,58.3,63.6,59.1,54.2,95,83,61,30.10,30.02,6,1,6,0.00
2013-9-7,76.9,64.2,54.9,63.9,57.7,51.7,95,81,56,30.05,29.90,6,1,6,0.00
2013-9-8,83.7,70.4,57.4,65.7,59.6,54.2,93,71,41,30.01,29.91,10,1,10,0.00
2013-9-9,84.1,71.9,59.0,65.4,61.2,54.7,90,71,50,29.97,29.84,10,1,10,0.00
2013-9-10,87.5,74.0,62.1,67.8,63.6,57.9,88,71,51,29.86,29.69,8,1,8,0.00
2013-9-11,92.9,73.3,61.0,69.0,62.1,55.3,89,70,44,29.91,29.73,7,1,7,0.00
2013-9-12,83.5,68.3,59.4,66.8,59.5,54.9,87,75,55,29.95,29.85,4,1,4,0.00
2013-9-13,78.7,66.3,55.8,65.5,59.0,51.7,92,78,63,29.92,29.77,6,0,6,0.00
2013-9-14,76.0,65.4,60.1,66.7,61.0,56.3,96,86,72,29.79,29.66,5,1,5,0.00
2013-9-15,69.3,63.6,59.6,62.4,58.6,55.9,92,84,77,29.86,29.68,5,1,5,0.00
2013-9-16,74.5,64.7,59.2,61.7,57.4,55.1,87,78,59,29.93,29.84,7,1,7,0.00
2013-9-17,70.0,62.4,58.3,59.1,54.9,51.4,88,77,56,29.98,29.80,6,1,7,0.00
2013-9-18,76.0,62.4,54.7,61.2,52.0,46.5,91,71,41,30.05,29.94,5,1,5,0.00
2013-9-19,79.6,62.3,46.6,58.4,51.0,42.4,87,69,41,29.94,29.73,4,0,4,0.00
2013-9-20,72.7,60.4,51.1,59.0,55.2,47.6,89,83,62,29.66,29.62,6,1,6,0.00
2013-9-21,66.4,59.8,54.7,59.2,55.5,51.8,94,86,70,29.76,29.63,5,1,6,0.00
2013-9-22,61.0,57.4,54.4,57.8,53.9,51.7,93,88,76,29.84,29.66,12,3,12,0.00
2013-9-23,65.2,58.7,55.1,59.2,55.0,52.5,92,88,77,29.96,29.84,10,2,10,0.00
2013-9-24,62.5,55.8,51.7,56.1,52.7,48.9,96,89,75,29.94,29.82,6,1,6,0.00
2013-9-25,63.7,54.0,49.5,54.9,49.8,47.3,94,86,65,30.00,29.82,7,0,7,0.00
2013-9-26,67.7,54.6,47.2,54.7,49.1,44.7,94,83,56,30.13,29.98,6,0,6,0.00
2013-9-27,55.4,51.6,45.0,53.6,49.0,42.6,94,91,86,30.13,29.91,9,2,9,0.00
2013-9-28,66.1,59.4,52.9,60.2,56.1,50.8,93,89,79,29.91,29.50,16,5,16,0.00
2013-9-29,56.3,54.4,52.9,54.9,52.1,50.0,95,92,84,29.67,29.41,13,5,13,0.00
2013-9-30,59.6,54.1,51.5,53.8,50.1,47.8,92,86,80,29.97,29.60,7,3,7,0.00
2013-10-1,61.9,53.5,43.6,53.9,48.4,40.2,92,83,65,30.15,29.94,4,1,4,0.00
2013-10-2,58.1,47.4,40.9,51.3,44.1,38.3,94,88,78,30.14,30.03,3,0,3,0.00
2013-10-3,59.0,47.9,40.7,52.2,43.4,39.1,96,85,60,30.35,30.13,4,0,4,0.00
2013-10-4,61.4,50.5,40.0,51.2,45.4,37.3,97,83,65,30.38,30.26,5,1,5,0.00
2013-10-5,67.5,51.8,38.7,54.7,45.3,36.5,95,80,55,30.27,30.08,4,0,4,0.00
2013-10-6,49.1,44.6,42.5,46.4,41.7,39.5,93,89,85,30.08,30.00,2,0,2,0.00
2013-10-10,64.4,55.7,47.5,52.2,49.8,44.5,89,81,60,30.04,29.94,2,0,2,0.00
2013-10-11,60.8,52.8,44.8,50.3,46.2,40.7,91,79,58,30.08,30.03,4,0,4,0.00
2013-10-12,62.3,51.3,45.7,52.5,46.2,42.1,91,83,64,30.10,30.00,6,0,6,0.00
2013-10-13,59.0,49.6,42.8,49.3,44.9,39.9,95,84,68,30.22,30.09,5,1,5,0.00
2013-10-14,64.8,52.3,40.1,50.7,44.9,37.0,93,77,56,30.27,30.19,8,1,8,0.00
2013-10-15,66.8,53.3,40.7,45.6,42.3,36.5,87,68,43,30.21,30.05,10,1,10,0.00
2013-10-16,67.0,50.6,38.7,52.7,43.2,35.0,88,77,55,30.08,30.03,5,0,5,0.00
2013-10-17,61.6,48.6,40.0,51.0,43.5,36.4,95,83,66,30.15,30.06,5,0,5,0.00
2013-10-18,67.9,50.8,38.9,50.6,42.9,36.0,93,76,46,30.09,30.00,8,0,8,0.00
2013-10-19,68.6,50.6,39.1,55.6,44.5,36.0,95,81,54,30.08,30.02,4,0,4,0.00
2013-10-20,65.5,50.9,42.1,52.7,45.2,39.6,94,82,60,30.07,29.98,4,0,4,0.00
2013-10-21,67.3,51.3,41.2,54.3,45.6,38.4,95,82,60,30.01,29.90,4,0,4,0.00
2013-10-22,70.2,53.3,44.3,57.3,47.6,41.3,95,82,56,29.98,29.88,4,0,4,0.00
2013-10-23,69.1,52.5,43.2,59.2,47.9,40.2,95,85,68,29.94,29.87,3,0,3,0.00
2013-10-24,61.6,50.1,45.0,55.5,47.3,42.6,95,90,79,30.02,29.91,4,0,4,0.00
2013-10-25,52.2,49.6,45.5,50.1,48.1,44.1,97,94,92,30.20,30.02,3,0,3,0.00
2013-10-26,51.8,50.7,49.3,49.2,48.2,46.9,95,91,88,30.20,30.09,4,0,4,0.00
2013-10-27,56.9,51.4,46.8,52.7,47.0,41.9,93,85,71,30.10,29.76,10,1,10,0.00
2013-10-28,58.7,49.0,38.9,43.8,40.3,31.2,89,74,47,29.84,29.71,10,1,10,0.00
2013-10-29,59.6,42.2,32.8,43.3,33.7,28.5,89,73,43,30.00,29.84,5,0,5,0.00
2013-10-30,61.6,45.6,31.9,47.4,38.0,28.1,88,76,55,30.11,30.00,2,0,2,0.00
2013-10-31,57.2,53.6,48.8,52.9,49.2,44.6,94,85,78,30.20,30.10,4,1,4,0.00
2013-11-1,58.1,51.6,47.9,52.0,48.8,46.6,97,90,79,30.20,29.86,4,0,4,0.00
2013-11-2,58.9,51.0,44.5,50.7,46.8,41.0,94,86,71,30.04,29.72,13,2,13,0.00
2013-11-3,52.7,46.3,40.7,47.6,42.5,38.0,93,87,76,30.12,30.03,7,1,7,0.00
2013-11-4,52.6,48.0,44.3,47.1,44.8,42.0,94,89,80,30.11,30.05,8,2,8,0.00
2013-11-5,55.1,51.4,48.1,52.4,49.6,46.4,94,93,91,30.17,30.01,10,2,10,0.00
2013-11-6,59.6,54.8,52.2,57.4,53.2,50.5,96,95,91,30.20,30.01,3,0,3,0.00
2013-11-7,58.7,52.4,45.9,54.7,49.4,43.1,97,90,75,30.09,29.85,12,2,12,0.00
2013-11-8,55.8,49.5,43.9,50.2,46.2,41.8,95,89,76,30.13,30.02,6,1,6,0.00
2013-11-9,49.5,46.3,43.6,46.1,43.9,41.9,95,91,85,30.03,29.95,3,0,3,0.00
2013-11-10,54.4,45.9,40.9,50.2,43.5,39.2,95,91,82,30.01,29.95,3,0,3,0.00
2013-11-11,51.7,46.1,43.2,48.7,44.4,41.3,97,94,88,30.06,29.94,4,0,4,0.00
2013-11-12,59.4,50.9,46.1,57.4,49.2,44.3,96,94,89,30.35,30.02,3,0,3,0.00
2013-11-13,52.4,49.8,48.2,50.3,48.4,46.4,96,95,92,30.38,30.22,5,0,5,0.00
2013-11-14,54.2,49.4,45.7,49.1,46.6,43.6,95,90,81,30.21,30.02,5,1,5,0.00
2013-11-15,49.7,46.5,43.7,47.0,44.4,42.4,95,92,89,30.03,29.56,13,2,13,0.00
2013-11-16,52.9,48.5,45.0,47.3,44.3,41.9,96,86,73,29.82,29.52,11,2,11,0.00
2013-11-17,56.2,49.9,45.5,48.7,45.3,41.8,91,84,75,29.95,29.82,10,3,10,0.00
2013-11-18,51.7,49.2,45.2,49.2,45.4,41.9,94,87,77,29.94,29.68,11,3,11,0.00
2013-11-19,54.9,49.8,41.2,53.1,47.3,33.3,95,91,74,29.93,29.64,11,3,11,0.00
2013-11-20,45.7,38.6,33.5,35.8,31.5,24.8,88,76,63,30.25,29.93,11,3,14,0.00
2013-11-21,46.4,36.4,28.6,24.8,21.4,18.1,72,56,35,30.46,30.25,11,2,11,0.00
2013-11-22,48.6,34.5,22.5,28.3,22.4,17.8,85,63,40,30.45,30.27,12,1,12,0.00
2013-11-23,51.8,36.8,25.0,31.5,25.0,20.2,85,64,42,30.27,30.07,8,1,10,0.00
2013-11-24,51.1,34.9,24.8,34.4,26.4,20.0,87,72,46,30.20,30.06,4,0,4,0.00
2013-11-25,50.9,34.7,25.0,39.8,29.1,21.4,88,80,62,30.26,30.19,4,0,4,0.00
2013-11-26,45.0,36.2,27.7,39.8,32.7,24.3,94,87,80,30.20,29.98,2,0,2,0.00
2013-11-27,49.0,37.9,31.1,40.9,33.1,28.9,93,83,63,29.99,29.86,5,0,5,0.00
2013-11-28,51.1,37.0,27.4,41.6,31.8,24.8,91,82,63,30.12,29.93,4,0,4,0.00
2013-11-29,46.1,36.7,28.1,41.2,33.4,25.0,92,88,81,30.28,30.11,2,0,2,0.00
2013-11-30,52.4,45.1,36.5,47.1,41.9,34.1,93,88,82,30.31,30.17,8,1,8,0.00
2013-12-1,55.8,53.0,49.3,53.8,50.4,45.1,95,91,84,30.18,29.91,15,6,15,0.00
2013-12-2,51.8,45.0,34.4,50.4,41.2,31.4,95,87,73,29.97,29.86,10,2,10,0.00
2013-12-3,42.1,34.4,28.8,36.9,29.8,21.8,96,84,60,30.18,29.95,8,1,8,0.00
2013-12-4,37.8,29.6,22.1,24.3,20.8,17.9,87,70,46,30.24,30.16,8,1,8,0.00
2013-12-5,33.3,25.2,17.6,23.9,18.3,13.0,86,75,61,30.22,30.07,3,0,3,0.00
2013-12-6,27.2,25.7,23.9,25.0,22.1,16.8,93,86,72,30.07,29.85,11,1,11,0.00
2013-12-7,28.6,21.1,8.3,17.1,11.3,1.7,76,66,49,30.35,29.96,6,1,10,0.00
2013-12-8,25.0,12.7,1.6,17.3,6.7,-3.7,83,77,68,30.53,30.35,3,0,3,0.00
2013-12-9,29.2,18.2,6.1,22.5,13.3,2.0,85,81,75,30.56,30.46,4,0,4,0.00
2013-12-10,34.0,25.5,19.3,27.8,21.0,14.9,87,83,76,30.48,30.33,2,0,2,0.00
2013-12-11,30.2,21.2,16.2,26.2,17.9,13.0,90,87,83,30.33,30.15,1,0,1,0.00
2013-12-12,39.1,28.2,17.3,37.4,26.0,14.5,94,91,88,30.17,30.05,6,0,6,0.00
2013-12-13,51.8,42.1,37.3,48.0,40.0,34.7,96,92,85,30.38,30.16,5,0,5,0.00
2013-12-14,43.2,39.6,37.1,41.9,38.2,35.7,96,95,92,30.41,30.30,6,0,6,0.00
2013-12-15,49.7,43.4,37.6,45.3,40.9,36.3,96,91,82,30.42,30.36,4,0,4,0.00
2013-12-16,45.7,42.6,40.1,43.4,41.2,38.8,97,95,90,30.40,30.18,5,1,5,0.00
2013-12-17,42.1,38.4,36.4,40.1,37.0,35.0,96,95,91,30.18,30.11,4,0,4,0.00
2013-12-18,42.1,38.3,33.5,40.8,36.9,31.3,96,95,92,30.13,29.99,9,0,9,0.00
2013-12-19,37.4,33.1,28.8,33.8,31.0,27.5,96,92,86,30.25,30.07,6,0,6,0.00
2013-12-20,45.0,37.5,32.0,43.7,35.5,30.1,95,92,87,30.16,29.89,7,2,7,0.00
2013-12-21,57.1,48.4,45.0,50.3,45.1,43.1,95,89,76,30.20,29.91,4,1,4,0.00
2013-12-22,58.1,50.1,42.3,52.6,46.5,39.6,93,88,79,30.30,30.20,5,1,5,0.00
2013-12-23,52.9,46.1,34.9,50.6,43.9,32.8,94,92,89,30.47,30.27,8,1,8,0.00
2013-12-24,43.4,35.9,31.5,40.5,34.1,30.0,96,93,85,30.52,30.41,6,0,6,0.00
2013-12-25,37.8,35.5,33.5,36.2,34.1,32.1,96,94,93,30.41,30.33,2,0,3,0.00
2013-12-26,36.2,34.0,31.3,34.8,32.6,30.1,96,95,94,30.33,30.17,2,0,2,0.00
2013-12-27,36.7,33.9,30.8,35.1,32.5,29.5,95,95,94,30.33,30.12,5,0,5,0.00
2013-12-28,43.0,38.1,33.5,40.6,36.0,32.1,96,92,85,30.43,30.32,8,1,8,0.00
2013-12-29,41.4,38.8,36.5,37.9,36.3,34.7,94,91,86,30.39,30.22,5,1,5,0.00
2013-12-30,42.8,38.5,35.1,40.1,36.5,32.9,94,93,89,30.22,30.13,4,0,4,0.00
2013-12-31,50.0,40.8,34.4,45.9,38.4,32.2,95,91,84,30.27,30.16,3,0,3,0.00
2014-1-1,41.4,38.1,33.1,40.1,36.5,31.1,96,94,92,30.29,30.20,4,0,4,0.00
2014-1-2,45.9,40.1,36.2,43.5,38.4,34.8,95,94,90,30.20,30.01,4,0,4,0.00